Date String (YYYY-MM-DD hh:mm:ss) UTC,Instrument flags,Ambient pressure (hPa),Sample flow (lpm),Bypass flow (lpm),Sample temperature (°C),Ambient temperature (°C),ASC tube jacket temperature (°C),LED temperature (°C),Box temperature (°C),Sample RH (%),Span deviation,Mass concentration (μg/m³),Mass concentration (μg/m³),Mass concentration (μg/m³)
DateTimeUTC,F1_M11,P_M11,Q1_M11,Q2_M11,T1_M11,T2_M11,T3_M11,T4_M11,T5_M11,U1_M11,ZSPAN_M11,X0_M11,X2_M11,X1_M11
2021-09-18 16:00:00,,0831.0,5.00,0.00,30.3,29.6,00.0,39.3,32.1,22.2,0001.5,0026.39,0009.15,0007.23
2021-09-18 16:01:00,,0831.0,5.01,0.00,30.3,29.6,00.0,39.3,32.1,22.4,0001.1,0027.16,0009.19,0007.25
2021-09-18 16:02:00,,0831.0,4.99,0.00,30.3,29.6,00.0,39.3,32.1,22.4,0000.9,0026.66,0009.25,0007.26
2021-09-18 16:03:00,,0831.0,5.00,0.00,30.3,29.6,00.0,39.3,32.1,22.2,0000.7,0026.27,0009.29,0007.26
2021-09-18 16:04:00,,0831.0,5.00,0.00,30.4,29.7,00.0,39.3,32.2,22.4,0000.9,0022.81,0009.24,0007.25
2021-09-18 16:05:00,,0831.1,4.99,0.00,30.4,29.7,00.0,39.4,32.2,22.5,0001.3,0023.29,0009.26,0007.23
2021-09-18 16:06:00,,0831.0,5.01,0.00,30.4,29.7,00.0,39.4,32.2,22.3,0001.6,0023.86,0009.21,0007.23
2021-09-18 16:07:00,,0831.0,5.00,0.00,30.4,29.7,00.0,39.4,32.3,22.1,0001.3,0023.95,0009.18,0007.21
2021-09-18 16:08:00,,0831.0,4.99,0.00,30.5,29.7,00.0,39.4,32.3,22.2,0001.3,0025.95,0009.21,0007.20
2021-09-18 16:09:00,,0830.9,5.01,0.00,30.5,29.8,00.0,39.4,32.3,22.4,0001.8,0025.97,0009.23,0007.21
2021-09-18 16:10:00,,0830.9,5.00,0.00,30.5,29.8,00.0,39.5,32.3,22.2,0001.9,0026.01,0009.23,0007.21
2021-09-18 16:11:00,,0830.9,5.00,0.00,30.5,29.8,00.0,39.5,32.3,22.2,0001.9,0027.12,0009.17,0007.18
2021-09-18 16:12:00,,0830.9,5.00,0.00,30.5,29.8,00.0,39.5,32.4,22.0,0002.2,0025.95,0009.12,0007.16
2021-09-18 16:13:00,,0830.9,4.99,0.00,30.6,29.8,00.0,39.5,32.4,22.3,0002.5,0025.82,0009.06,0007.14
2021-09-18 16:14:00,,0830.9,5.00,0.00,30.6,29.9,00.0,39.5,32.4,22.3,0002.5,0026.05,0009.01,0007.13
2021-09-18 16:15:00,,0830.9,5.00,0.00,30.6,29.9,00.0,39.6,32.4,22.2,0002.1,0026.78,0009.04,0007.12
2021-09-18 16:16:00,,0830.9,4.99,0.00,30.6,29.9,00.0,39.6,32.4,22.0,0001.4,0026.55,0008.96,0007.10
2021-09-18 16:17:00,,0830.9,5.00,0.00,30.7,29.9,00.0,39.6,32.4,22.0,0001.3,0026.13,0008.95,0007.09
2021-09-18 16:18:00,,0830.9,5.02,0.00,30.7,30.0,00.0,39.6,32.5,22.1,0001.6,0025.57,0008.88,0007.07
2021-09-18 16:19:00,,0830.9,4.99,0.00,30.7,30.0,00.0,39.7,32.5,22.2,0001.5,0023.76,0008.82,0007.05
2021-09-18 16:20:00,,0831.0,5.01,0.00,30.7,30.0,00.0,39.7,32.5,22.1,0001.3,0023.22,0008.79,0007.03
2021-09-18 16:21:00,,0831.0,4.99,0.00,30.7,30.0,00.0,39.7,32.5,21.5,0001.1,0023.01,0008.76,0007.01
2021-09-18 16:22:00,,0831.0,4.99,0.00,30.8,30.0,00.0,39.7,32.6,21.4,0001.2,0021.79,0008.70,0007.01
2021-09-18 16:23:00,,0831.0,5.00,0.00,30.8,30.1,00.0,39.7,32.6,21.5,0000.8,0022.52,0008.71,0007.01
2021-09-18 16:24:00,,0831.0,5.00,0.00,30.8,29.4,00.0,39.8,32.4,21.3,0000.1,0021.90,0008.72,0007.00
2021-09-18 16:25:00,,0830.9,5.00,0.00,30.7,27.5,00.0,39.7,31.9,21.6,-000.0,0022.04,0008.74,0006.98
2021-09-18 16:26:00,,0830.9,4.99,0.00,30.5,26.8,00.0,39.7,31.7,21.7,0000.1,0021.61,0008.72,0006.97
2021-09-18 16:27:00,,0830.9,5.00,0.00,30.4,27.2,00.0,39.7,31.8,21.1,0000.8,0020.82,0008.66,0006.96
2021-09-18 16:28:00,,0830.9,5.01,0.00,30.4,27.6,00.0,39.6,31.8,21.4,0000.7,0021.11,0008.65,0006.94
2021-09-18 16:29:00,,0830.9,4.99,0.00,30.3,28.0,00.0,39.6,31.9,20.9,0001.0,0021.07,0008.68,0006.92
2021-09-18 16:30:00,,0830.9,5.01,0.00,30.3,28.3,00.0,39.5,31.9,21.2,0001.0,0021.05,0008.75,0006.92
2021-09-18 16:31:00,,0830.9,4.99,0.00,30.3,28.6,00.0,39.5,32.0,21.8,0000.9,0022.76,0008.75,0006.91
2021-09-18 16:32:00,,0830.9,5.00,0.00,30.3,28.8,00.0,39.5,32.0,21.9,0000.8,0024.87,0008.80,0006.91
2021-09-18 16:33:00,,0830.9,5.01,0.00,30.3,29.0,00.0,39.5,32.0,21.8,0000.7,0025.84,0008.84,0006.91
2021-09-18 16:34:00,,0830.9,5.00,0.00,30.4,29.1,00.0,39.5,32.1,21.9,0001.0,0025.50,0008.83,0006.90
2021-09-18 16:35:00,,0830.9,4.99,0.00,30.4,29.2,00.0,39.5,32.1,21.9,0001.4,0026.40,0008.82,0006.90
2021-09-18 16:36:00,,0830.9,5.01,0.00,30.4,29.3,00.0,39.5,32.1,21.7,0001.8,0027.05,0008.76,0006.89
2021-09-18 16:37:00,,0830.9,4.99,0.00,30.4,29.4,00.0,39.5,32.2,21.5,0002.0,0027.16,0008.73,0006.88
2021-09-18 16:38:00,,0830.9,5.01,0.00,30.4,29.5,00.0,39.5,32.2,21.4,0001.6,0026.47,0008.80,0006.88
2021-09-18 16:39:00,,0830.9,4.99,0.00,30.5,29.6,00.0,39.5,32.2,21.4,0001.5,0025.95,0008.86,0006.88
2021-09-18 16:40:00,,0830.9,5.01,0.00,30.5,29.6,00.0,39.5,32.3,21.6,0001.4,0027.05,0008.87,0006.89
2021-09-18 16:41:00,,0830.9,5.00,0.00,30.5,29.4,00.0,39.5,32.2,21.6,0001.8,0027.71,0008.87,0006.89
2021-09-18 16:42:00,,0830.9,4.99,0.00,30.4,27.7,00.0,39.5,31.8,21.6,0002.4,0026.47,0008.86,0006.89
2021-09-18 16:43:00,,0830.9,4.99,0.00,30.3,26.8,00.0,39.5,31.5,21.6,0002.8,0024.43,0008.75,0006.87
2021-09-18 16:44:00,,0830.8,5.00,0.00,30.2,27.1,00.0,39.5,31.6,21.8,0002.7,0023.79,0008.74,0006.84
2021-09-18 16:45:00,,0830.7,5.01,0.00,30.1,27.5,00.0,39.4,31.7,21.6,0002.5,0024.21,0008.82,0006.82
2021-09-18 16:46:00,,0830.7,5.00,0.00,30.1,27.9,00.0,39.4,31.7,21.7,0002.6,0023.52,0008.83,0006.80
2021-09-18 16:47:00,,0830.7,5.00,0.00,30.1,28.2,00.0,39.3,31.8,21.6,0002.8,0022.92,0008.79,0006.77
2021-09-18 16:48:00,,0830.8,4.99,0.00,30.1,28.5,00.0,39.3,31.8,21.1,0002.6,0022.79,0008.80,0006.75
2021-09-18 16:49:00,,0830.8,5.00,0.00,30.2,28.7,00.0,39.3,31.9,21.0,0002.6,0023.39,0008.72,0006.72
2021-09-18 16:50:00,,0830.8,5.00,0.00,30.2,28.9,00.0,39.3,31.9,21.2,0002.6,0023.99,0008.65,0006.70
2021-09-18 16:51:00,,0830.8,5.01,0.00,30.2,29.0,00.0,39.3,32.0,20.5,0002.7,0023.35,0008.62,0006.70
2021-09-18 16:52:00,,0830.8,4.99,0.00,30.2,29.1,00.0,39.3,32.0,20.3,0002.6,0023.82,0008.53,0006.68
2021-09-18 16:53:00,,0830.8,5.01,0.00,30.3,29.2,00.0,39.3,32.0,20.3,0002.1,0023.37,0008.50,0006.66
2021-09-18 16:54:00,,0830.8,5.00,0.00,30.3,29.3,00.0,39.3,32.1,20.3,0001.6,0023.84,0008.63,0006.66
2021-09-18 16:55:00,,0830.8,5.01,0.00,30.3,29.0,00.0,39.3,32.0,20.3,0001.7,0025.25,0008.67,0006.65
2021-09-18 16:56:00,,0830.7,4.99,0.00,30.2,27.3,00.0,39.3,31.6,19.7,0001.7,0025.19,0008.55,0006.62
2021-09-18 16:57:00,,0830.7,4.99,0.00,30.1,26.6,00.0,39.3,31.4,19.9,0001.2,0024.68,0008.47,0006.59
2021-09-18 16:58:00,,0830.6,5.01,0.00,30.0,26.9,00.0,39.3,31.4,20.3,0000.5,0024.53,0008.48,0006.59
2021-09-18 16:59:00,,0830.7,5.00,0.00,30.0,27.3,00.0,39.2,31.5,20.9,0000.1,0024.05,0008.39,0006.57
